Time,TemperatureF,DewpointF,PressureIn,WindDirection,WindDirectionDegrees,WindSpeedMPH,WindSpeedGustMPH,Humidity,HourlyPrecipIn,Conditions,Clouds,dailyrainin,SoftwareType,DateUTC
2013-05-14 00:04:00,52.3,46.7,30.09,South,180,0.0,0.0,81,0.00,RA,FEW,0.00,WeatherDisplay:10.37,2013-05-14 07:04:00,
2013-05-14 00:09:00,52.3,46.7,30.10,South,180,0.0,0.0,81,0.00,RA,FEW,0.00,WeatherDisplay:10.37,2013-05-14 07:09:00,
2013-05-14 00:14:00,52.3,46.7,30.10,South,180,0.0,0.0,81,0.00,CLR,FEW,0.00,WeatherDisplay:10.37,2013-05-14 07:14:00,
2013-05-14 00:19:00,52.2,46.8,30.10,South,180,0.0,0.0,82,0.00,CLR,FEW,0.00,WeatherDisplay:10.37,2013-05-14 07:19:00,
2013-05-14 00:24:00,52.3,47.0,30.09,SSW,202,0.0,0.0,82,0.00,CLR,FEW,0.00,WeatherDisplay:10.37,2013-05-14 07:24:00,
2013-05-14 00:29:00,52.3,47.3,30.10,SW,225,0.0,0.0,83,0.00,CLR,FEW,0.00,WeatherDisplay:10.37,2013-05-14 07:29:00,
2013-05-14 00:35:00,52.3,47.3,30.10,SW,225,0.0,0.0,83,0.00,CLR,FEW,0.00,WeatherDisplay:10.37,2013-05-14 07:35:00,
2013-05-14 00:40:00,52.3,47.3,30.10,South,180,0.0,0.0,83,0.00,CLR,FEW,0.00,WeatherDisplay:10.37,2013-05-14 07:40:00,
2013-05-14 00:45:00,52.3,47.3,30.10,South,180,0.0,0.0,83,0.00,CLR,FEW,0.00,WeatherDisplay:10.37,2013-05-14 07:45:00,
2013-05-14 00:50:00,52.3,47.3,30.10,SSW,202,0.0,0.0,83,0.00,CLR,FEW,0.00,WeatherDisplay:10.37,2013-05-14 07:50:00,
2013-05-14 00:55:00,52.5,47.5,30.10,SSW,202,0.0,0.0,83,0.00,CLR,FEW,0.00,WeatherDisplay:10.37,2013-05-14 07:55:00,
2013-05-14 01:00:00,52.5,47.5,30.10,SSW,202,0.0,0.0,83,0.00,CLR,FEW,0.00,WeatherDisplay:10.37,2013-05-14 08:00:00,
2013-05-14 01:05:00,52.3,47.3,30.10,SSW,202,0.0,0.0,83,0.00,CLR,FEW,0.00,WeatherDisplay:10.37,2013-05-14 08:05:00,
2013-05-14 01:10:00,52.3,47.3,30.10,SSW,202,0.0,0.0,83,0.00,CLR,FEW,0.00,WeatherDisplay:10.37,2013-05-14 08:10:00,
2013-05-14 01:15:00,52.2,47.2,30.10,SSW,202,0.0,0.0,83,0.00,CLR,FEW,0.00,WeatherDisplay:10.37,2013-05-14 08:15:00,
2013-05-14 01:20:00,52.0,46.7,30.10,SSW,202,0.0,0.0,82,0.00,CLR,FEW,0.00,WeatherDisplay:10.37,2013-05-14 08:20:00,
2013-05-14 01:25:00,52.0,46.7,30.11,SSW,202,0.0,0.0,82,0.00,CLR,FEW,0.00,WeatherDisplay:10.37,2013-05-14 08:25:00,
2013-05-14 01:30:00,51.6,46.6,30.11,South,180,0.0,0.0,83,0.00,CLR,FEW,0.00,WeatherDisplay:10.37,2013-05-14 08:30:00,
2013-05-14 01:35:00,51.6,46.6,30.11,ESE,112,0.0,0.0,83,0.00,CLR,FEW,0.00,WeatherDisplay:10.37,2013-05-14 08:35:00,
2013-05-14 01:40:00,51.6,46.6,30.11,NNE,22,0.0,0.0,83,0.00,CLR,FEW,0.00,WeatherDisplay:10.37,2013-05-14 08:40:00,
2013-05-14 01:45:00,51.6,46.9,30.11,NNE,22,0.0,0.0,84,0.00,CLR,FEW,0.00,WeatherDisplay:10.37,2013-05-14 08:45:00,
2013-05-14 01:50:00,51.6,46.9,30.11,NNE,22,0.0,0.0,84,0.00,CLR,FEW,0.00,WeatherDisplay:10.37,2013-05-14 08:50:00,
2013-05-14 01:55:00,51.6,46.9,30.11,NNE,22,0.0,0.0,84,0.00,CLR,FEW,0.00,WeatherDisplay:10.37,2013-05-14 08:55:00,
2013-05-14 02:00:00,51.8,47.1,30.11,NNE,22,0.0,0.0,84,0.00,CLR,FEW,0.00,WeatherDisplay:10.37,2013-05-14 09:00:00,
2013-05-14 02:05:00,51.8,47.1,30.11,NNE,22,0.0,0.0,84,0.00,CLR,FEW,0.00,WeatherDisplay:10.37,2013-05-14 09:05:00,
2013-05-14 02:10:00,52.0,47.3,30.12,NNE,22,0.0,0.0,84,0.00,CLR,FEW,0.00,WeatherDisplay:10.37,2013-05-14 09:10:00,
2013-05-14 02:15:00,51.8,47.4,30.12,NNE,22,0.0,0.0,85,0.00,CLR,FEW,0.00,WeatherDisplay:10.37,2013-05-14 09:15:00,
2013-05-14 02:20:00,51.8,47.4,30.12,NNE,22,0.0,0.0,85,0.00,CLR,FEW,0.00,WeatherDisplay:10.37,2013-05-14 09:20:00,
2013-05-14 02:25:00,52.0,47.6,30.12,NNE,22,0.0,0.0,85,0.00,CLR,FEW,0.00,WeatherDisplay:10.37,2013-05-14 09:25:00,
2013-05-14 02:30:00,52.0,47.6,30.12,NNE,22,0.0,0.0,85,0.00,CLR,FEW,0.00,WeatherDisplay:10.37,2013-05-14 09:30:00,
2013-05-14 02:35:00,52.0,47.6,30.12,NNE,22,0.0,0.0,85,0.00,CLR,FEW,0.00,WeatherDisplay:10.37,2013-05-14 09:35:00,
2013-05-14 02:40:00,52.2,48.1,30.12,NNE,22,0.0,0.0,86,0.00,CLR,FEW,0.00,WeatherDisplay:10.37,2013-05-14 09:40:00,
2013-05-14 02:45:00,52.3,48.0,30.12,NNE,22,0.0,0.0,85,0.00,CLR,FEW,0.00,WeatherDisplay:10.37,2013-05-14 09:45:00,
2013-05-14 02:50:00,52.3,48.0,30.13,NNE,22,0.0,0.0,85,0.00,CLR,FEW,0.00,WeatherDisplay:10.37,2013-05-14 09:50:00,
2013-05-14 02:55:00,52.3,48.0,30.13,SW,225,0.0,0.0,85,0.00,CLR,FEW,0.00,WeatherDisplay:10.37,2013-05-14 09:55:00,
2013-05-14 03:00:00,52.3,48.0,30.13,SW,225,0.0,0.0,85,0.00,CLR,FEW,0.00,WeatherDisplay:10.37,2013-05-14 10:00:00,
2013-05-14 03:05:00,52.5,48.1,30.12,SW,225,0.0,0.0,85,0.00,CLR,FEW,0.00,WeatherDisplay:10.37,2013-05-14 10:05:00,
2013-05-14 03:10:00,52.3,48.0,30.12,South,180,0.0,0.0,85,0.00,CLR,FEW,0.00,WeatherDisplay:10.37,2013-05-14 10:10:00,
2013-05-14 03:15:00,52.5,48.1,30.13,SW,225,0.0,0.0,85,0.00,CLR,FEW,0.00,WeatherDisplay:10.37,2013-05-14 10:15:00,
2013-05-14 03:20:00,52.5,48.1,30.13,SW,225,0.0,0.0,85,0.00,CLR,FEW,0.00,WeatherDisplay:10.37,2013-05-14 10:20:00,
2013-05-14 03:25:00,52.3,48.0,30.13,SW,225,0.0,0.0,85,0.00,CLR,FEW,0.00,WeatherDisplay:10.37,2013-05-14 10:25:00,
2013-05-14 03:30:00,52.3,48.0,30.13,SW,225,0.0,0.0,85,0.00,CLR,FEW,0.00,WeatherDisplay:10.37,2013-05-14 10:30:00,
2013-05-14 03:35:00,52.3,48.0,30.13,SW,225,0.0,0.0,85,0.00,CLR,FEW,0.00,WeatherDisplay:10.37,2013-05-14 10:35:00,
2013-05-14 03:40:00,52.3,48.0,30.13,SW,225,0.0,0.0,85,0.00,CLR,FEW,0.00,WeatherDisplay:10.37,2013-05-14 10:40:00,
2013-05-14 03:45:00,52.3,48.0,30.13,SW,225,0.0,0.0,85,0.00,CLR,FEW,0.00,WeatherDisplay:10.37,2013-05-14 10:45:00,
2013-05-14 03:50:00,52.3,48.0,30.13,SW,225,0.0,0.0,85,0.00,CLR,FEW,0.00,WeatherDisplay:10.37,2013-05-14 10:50:00,
2013-05-14 03:55:00,52.3,48.0,30.13,SW,225,0.0,0.0,85,0.00,CLR,FEW,0.00,WeatherDisplay:10.37,2013-05-14 10:55:00,
2013-05-14 04:00:00,52.3,48.0,30.13,SW,225,0.0,0.0,85,0.00,CLR,FEW,0.00,WeatherDisplay:10.37,2013-05-14 11:00:00,
2013-05-14 04:05:00,52.3,48.0,30.13,SW,225,0.0,0.0,85,0.00,CLR,FEW,0.00,WeatherDisplay:10.37,2013-05-14 11:05:00,
2013-05-14 04:10:00,52.3,48.0,30.12,SW,225,0.0,0.0,85,0.00,CLR,FEW,0.00,WeatherDisplay:10.37,2013-05-14 11:10:00,
2013-05-14 04:15:00,52.3,48.0,30.12,SW,225,0.0,0.0,85,0.00,CLR,FEW,0.00,WeatherDisplay:10.37,2013-05-14 11:15:00,
2013-05-14 04:20:00,52.3,48.0,30.12,SW,225,0.0,0.0,85,0.00,CLR,FEW,0.00,WeatherDisplay:10.37,2013-05-14 11:20:00,
2013-05-14 04:25:00,52.3,48.0,30.13,SW,225,0.0,0.0,85,0.00,CLR,FEW,0.00,WeatherDisplay:10.37,2013-05-14 11:25:00,
2013-05-14 04:30:00,52.3,48.0,30.12,SW,225,0.0,0.0,85,0.00,CLR,FEW,0.00,WeatherDisplay:10.37,2013-05-14 11:30:00,
2013-05-14 04:35:00,52.2,47.5,30.12,SW,225,0.0,0.0,84,0.00,CLR,FEW,0.00,WeatherDisplay:10.37,2013-05-14 11:35:00,
2013-05-14 04:40:00,52.2,47.5,30.12,SW,225,0.0,0.0,84,0.00,CLR,FEW,0.00,WeatherDisplay:10.37,2013-05-14 11:40:00,
2013-05-14 04:45:00,52.0,47.3,30.12,SW,225,0.0,0.0,84,0.00,CLR,FEW,0.00,WeatherDisplay:10.37,2013-05-14 11:45:00,
2013-05-14 04:50:00,52.0,47.3,30.13,SW,225,0.0,0.0,84,0.00,CLR,FEW,0.00,WeatherDisplay:10.37,2013-05-14 11:50:00,
2013-05-14 04:55:00,52.0,47.3,30.12,SW,225,0.0,0.0,84,0.00,CLR,FEW,0.00,WeatherDisplay:10.37,2013-05-14 11:55:00,
2013-05-14 05:00:00,51.8,47.1,30.12,SW,225,0.0,0.0,84,0.00,CLR,FEW,0.00,WeatherDisplay:10.37,2013-05-14 12:00:00,
2013-05-14 05:05:00,51.6,46.9,30.13,SW,225,0.0,0.0,84,0.00,CLR,FEW,0.00,WeatherDisplay:10.37,2013-05-14 12:05:00,
2013-05-14 05:10:00,51.6,46.9,30.13,SW,225,0.0,0.0,84,0.00,CLR,FEW,0.00,WeatherDisplay:10.37,2013-05-14 12:10:00,
2013-05-14 05:15:00,51.6,46.9,30.13,SW,225,0.0,0.0,84,0.00,CLR,FEW,0.00,WeatherDisplay:10.37,2013-05-14 12:15:00,
2013-05-14 05:20:00,51.6,46.9,30.12,SW,225,0.0,0.0,84,0.00,CLR,FEW,0.00,WeatherDisplay:10.37,2013-05-14 12:20:00,
2013-05-14 05:25:00,51.6,46.9,30.13,SSW,202,4.7,4.7,84,0.00,CLR,FEW,0.00,WeatherDisplay:10.37,2013-05-14 12:25:00,
2013-05-14 05:30:00,51.6,46.9,30.13,SSW,202,0.0,0.0,84,0.00,CLR,FEW,0.00,WeatherDisplay:10.37,2013-05-14 12:30:00,
2013-05-14 05:35:00,51.6,46.9,30.13,SSW,202,0.0,0.0,84,0.00,CLR,FEW,0.00,WeatherDisplay:10.37,2013-05-14 12:35:00,
2013-05-14 05:40:00,51.6,46.9,30.13,SSW,202,0.0,0.0,84,0.00,CLR,FEW,0.00,WeatherDisplay:10.37,2013-05-14 12:40:00,
2013-05-14 05:45:00,51.6,46.9,30.13,South,180,0.0,0.0,84,0.00,CLR,FEW,0.00,WeatherDisplay:10.37,2013-05-14 12:45:00,
2013-05-14 05:50:00,51.4,46.8,30.13,South,180,0.0,0.0,84,0.00,CLR,FEW,0.00,WeatherDisplay:10.37,2013-05-14 12:50:00,
2013-05-14 05:55:00,51.4,46.8,30.13,South,180,0.0,0.0,84,0.00,CLR,FEW,0.00,WeatherDisplay:10.37,2013-05-14 12:55:00,
2013-05-14 06:00:00,51.4,46.8,30.13,South,180,1.6,1.6,84,0.00,CLR,FEW,0.00,WeatherDisplay:10.37,2013-05-14 13:00:00,
2013-05-14 06:05:00,51.6,46.9,30.13,SSW,202,2.3,2.3,84,0.00,CLR,FEW,0.00,WeatherDisplay:10.37,2013-05-14 13:05:00,
2013-05-14 06:10:00,51.4,46.8,30.13,SSW,202,0.0,0.0,84,0.00,CLR,FEW,0.00,WeatherDisplay:10.37,2013-05-14 13:10:00,
2013-05-14 06:15:00,51.6,46.9,30.13,SSW,202,0.0,0.0,84,0.00,CLR,FEW,0.00,WeatherDisplay:10.37,2013-05-14 13:15:00,
2013-05-14 06:20:00,51.6,46.9,30.13,SSW,202,0.0,0.0,84,0.00,CLR,FEW,0.00,WeatherDisplay:10.37,2013-05-14 13:20:00,
2013-05-14 06:26:00,51.6,46.9,30.13,SSW,202,0.0,0.0,84,0.00,CLR,FEW,0.00,WeatherDisplay:10.37,2013-05-14 13:26:00,
2013-05-14 06:31:00,51.6,46.6,30.13,SSW,202,0.0,0.0,83,0.00,CLR,FEW,0.00,WeatherDisplay:10.37,2013-05-14 13:31:00,
2013-05-14 06:36:00,52.0,47.0,30.13,SW,225,3.5,3.5,83,0.00,CLR,FEW,0.00,WeatherDisplay:10.37,2013-05-14 13:36:00,
2013-05-14 06:41:00,52.2,47.2,30.13,SW,225,0.0,0.0,83,0.00,CLR,FEW,0.00,WeatherDisplay:10.37,2013-05-14 13:41:00,
2013-05-14 06:46:00,53.4,49.0,30.13,SW,225,0.0,0.0,85,0.00,CLR,FEW,0.00,WeatherDisplay:10.37,2013-05-14 13:46:00,
2013-05-14 06:52:00,53.8,49.4,30.13,SW,225,0.0,0.0,85,0.00,CLR,FEW,0.00,WeatherDisplay:10.37,2013-05-14 13:52:00,
2013-05-14 06:57:00,55.2,50.5,30.13,SW,225,0.0,0.0,84,0.00,CLR,FEW,0.00,WeatherDisplay:10.37,2013-05-14 13:57:00,
2013-05-14 07:02:00,56.3,50.9,30.12,SW,225,0.0,0.0,82,0.00,CLR,FEW,0.00,WeatherDisplay:10.37,2013-05-14 14:02:00,
2013-05-14 07:07:00,57.6,51.1,30.12,SSW,202,0.0,0.0,79,0.00,CLR,FEW,0.00,WeatherDisplay:10.37,2013-05-14 14:07:00,
2013-05-14 07:12:00,59.0,52.5,30.12,SSW,202,0.0,0.0,79,0.00,CLR,FEW,0.00,WeatherDisplay:10.37,2013-05-14 14:12:00,
2013-05-14 07:17:00,60.8,53.2,30.12,SSW,202,0.0,0.0,76,0.00,CLR,FEW,0.00,WeatherDisplay:10.37,2013-05-14 14:17:00,
2013-05-14 07:22:00,61.5,53.9,30.12,SSW,202,0.0,0.0,76,0.00,CLR,FEW,0.00,WeatherDisplay:10.37,2013-05-14 14:22:00,
2013-05-14 07:27:00,65.1,55.9,30.12,SW,225,0.0,0.0,72,0.00,CLR,FEW,0.00,WeatherDisplay:10.37,2013-05-14 14:27:00,
2013-05-14 07:32:00,66.0,55.6,30.12,SSW,202,0.0,0.0,69,0.00,CLR,FEW,0.00,WeatherDisplay:10.37,2013-05-14 14:32:00,
2013-05-14 07:37:00,67.8,56.0,30.12,SSW,202,0.0,0.0,66,0.00,CLR,FEW,0.00,WeatherDisplay:10.37,2013-05-14 14:37:00,
2013-05-14 07:42:00,70.0,55.9,30.12,SW,225,0.0,0.0,61,0.00,CLR,FEW,0.00,WeatherDisplay:10.37,2013-05-14 14:42:00,
2013-05-14 07:47:00,70.5,55.5,30.12,SW,225,0.0,0.0,59,0.00,CLR,FEW,0.00,WeatherDisplay:10.37,2013-05-14 14:47:00,
2013-05-14 07:52:00,71.2,54.7,30.12,NE,45,0.0,0.0,56,0.00,CLR,FEW,0.00,WeatherDisplay:10.37,2013-05-14 14:52:00,
2013-05-14 07:57:00,70.3,53.9,30.12,NE,45,0.0,0.0,56,0.00,CLR,FEW,0.00,WeatherDisplay:10.37,2013-05-14 14:57:00,
2013-05-14 08:02:00,70.0,53.1,30.12,NE,45,0.0,0.0,55,0.00,CLR,FEW,0.00,WeatherDisplay:10.37,2013-05-14 15:02:00,
2013-05-14 08:07:00,69.1,51.7,30.12,NNE,22,0.0,0.0,54,0.00,CLR,FEW,0.00,WeatherDisplay:10.37,2013-05-14 15:07:00,
2013-05-14 08:12:00,69.1,52.2,30.11,ENE,68,0.0,0.0,55,0.00,CLR,FEW,0.00,WeatherDisplay:10.37,2013-05-14 15:12:00,
2013-05-14 08:17:00,66.0,49.9,30.11,ENE,68,0.0,0.0,56,0.00,CLR,FEW,0.00,WeatherDisplay:10.37,2013-05-14 15:17:00,
2013-05-14 08:22:00,64.9,49.3,30.12,East,90,1.2,1.2,57,0.00,CLR,FEW,0.00,WeatherDisplay:10.37,2013-05-14 15:22:00,
2013-05-14 08:27:00,64.0,49.9,30.11,ENE,68,0.0,0.0,60,0.00,CLR,FEW,0.00,WeatherDisplay:10.37,2013-05-14 15:27:00,
2013-05-14 08:32:00,64.2,50.5,30.11,ENE,68,0.0,0.0,61,0.00,CLR,FEW,0.00,WeatherDisplay:10.37,2013-05-14 15:32:00,
2013-05-14 08:37:00,64.6,51.3,30.11,ESE,112,0.0,0.0,62,0.00,CLR,FEW,0.00,WeatherDisplay:10.37,2013-05-14 15:37:00,
2013-05-14 08:42:00,64.9,50.7,30.11,ESE,112,0.0,0.0,60,0.00,CLR,FEW,0.00,WeatherDisplay:10.37,2013-05-14 15:42:00,
2013-05-14 08:47:00,64.8,51.0,30.11,ESE,112,0.0,0.0,61,0.00,CLR,FEW,0.00,WeatherDisplay:10.37,2013-05-14 15:47:00,
2013-05-14 08:52:00,64.8,51.4,30.10,ESE,112,0.0,0.0,62,0.00,CLR,FEW,0.00,WeatherDisplay:10.37,2013-05-14 15:52:00,
2013-05-14 08:57:00,65.1,52.2,30.10,SE,135,0.0,0.0,63,0.00,CLR,FEW,0.00,WeatherDisplay:10.37,2013-05-14 15:57:00,
2013-05-14 09:02:00,65.5,51.7,30.10,SE,135,0.0,0.0,61,0.00,CLR,FEW,0.00,WeatherDisplay:10.37,2013-05-14 16:02:00,
2013-05-14 09:07:00,66.4,52.1,30.10,ENE,68,0.0,0.0,60,0.00,CLR,FEW,0.00,WeatherDisplay:10.37,2013-05-14 16:07:00,
2013-05-14 09:12:00,67.8,53.0,30.10,East,90,0.0,0.0,59,0.00,CLR,FEW,0.00,WeatherDisplay:10.37,2013-05-14 16:12:00,
2013-05-14 09:17:00,69.1,52.7,30.10,East,90,0.0,0.0,56,0.00,CLR,FEW,0.00,WeatherDisplay:10.37,2013-05-14 16:17:00,
2013-05-14 09:22:00,69.6,53.2,30.10,East,90,0.0,0.0,56,0.00,CLR,FEW,0.00,WeatherDisplay:10.37,2013-05-14 16:22:00,
2013-05-14 09:27:00,70.3,50.3,30.10,NNW,338,0.0,0.0,49,0.00,CLR,FEW,0.00,WeatherDisplay:10.37,2013-05-14 16:27:00,
2013-05-14 09:32:00,70.2,49.5,30.09,NNW,338,0.0,0.0,48,0.00,CLR,FEW,0.00,WeatherDisplay:10.37,2013-05-14 16:32:00,
2013-05-14 09:37:00,69.6,48.5,30.10,SW,225,0.0,0.0,47,0.00,CLR,FEW,0.00,WeatherDisplay:10.37,2013-05-14 16:37:00,
2013-05-14 09:42:00,70.2,50.1,30.09,SW,225,0.0,0.0,49,0.00,CLR,FEW,0.00,WeatherDisplay:10.37,2013-05-14 16:42:00,
2013-05-14 09:47:00,70.9,50.2,30.09,West,270,0.0,0.0,48,0.00,CLR,FEW,0.00,WeatherDisplay:10.37,2013-05-14 16:47:00,
2013-05-14 09:52:00,71.2,48.2,30.09,SW,225,2.3,2.3,44,0.00,CLR,FEW,0.00,WeatherDisplay:10.37,2013-05-14 16:52:00,
2013-05-14 09:57:00,72.0,49.5,30.10,WSW,248,0.0,0.0,45,0.00,CLR,FEW,0.00,WeatherDisplay:10.37,2013-05-14 16:57:00,
2013-05-14 10:02:00,72.3,49.2,30.10,SSW,202,0.0,0.0,44,0.00,CLR,FEW,0.00,WeatherDisplay:10.37,2013-05-14 17:02:00,
2013-05-14 10:07:00,72.7,48.9,30.09,West,270,1.2,1.2,43,0.00,CLR,FEW,0.00,WeatherDisplay:10.37,2013-05-14 17:07:00,
2013-05-14 10:12:00,72.7,48.9,30.09,WSW,248,2.3,2.3,43,0.00,CLR,FEW,0.00,WeatherDisplay:10.37,2013-05-14 17:12:00,
2013-05-14 10:17:00,72.7,47.0,30.08,ENE,68,0.0,0.0,40,0.00,CLR,FEW,0.00,WeatherDisplay:10.37,2013-05-14 17:17:00,
2013-05-14 10:22:00,72.3,46.0,30.08,NE,45,0.0,0.0,39,0.00,CLR,FEW,0.00,WeatherDisplay:10.37,2013-05-14 17:22:00,
2013-05-14 10:27:00,71.2,46.3,30.08,SSE,158,0.0,0.0,41,0.00,CLR,FEW,0.00,WeatherDisplay:10.37,2013-05-14 17:27:00,
2013-05-14 10:32:00,70.9,46.0,30.08,ENE,68,0.0,0.0,41,0.00,CLR,FEW,0.00,WeatherDisplay:10.37,2013-05-14 17:32:00,
2013-05-14 10:37:00,69.6,44.2,30.08,NNE,22,0.0,0.0,40,0.00,CLR,FEW,0.00,WeatherDisplay:10.37,2013-05-14 17:37:00,
2013-05-14 10:42:00,68.9,44.2,30.08,NW,315,0.0,0.0,41,0.00,CLR,FEW,0.00,WeatherDisplay:10.37,2013-05-14 17:42:00,
2013-05-14 10:47:00,68.5,45.1,30.08,WSW,248,0.0,0.0,43,0.00,CLR,FEW,0.00,WeatherDisplay:10.37,2013-05-14 17:47:00,
2013-05-14 10:52:00,68.2,45.4,30.08,NW,315,0.0,0.0,44,0.00,CLR,FEW,0.00,WeatherDisplay:10.37,2013-05-14 17:52:00,
2013-05-14 10:57:00,67.8,44.5,30.07,NNW,338,0.0,0.0,43,0.00,CLR,FEW,0.00,WeatherDisplay:10.37,2013-05-14 17:57:00,
2013-05-14 11:02:00,67.6,44.3,30.07,SW,225,0.0,0.0,43,0.00,CLR,FEW,0.00,WeatherDisplay:10.37,2013-05-14 18:02:00,
2013-05-14 11:07:00,67.3,45.2,30.07,ENE,68,0.0,0.0,45,0.00,CLR,FEW,0.00,WeatherDisplay:10.37,2013-05-14 18:07:00,
2013-05-14 11:12:00,66.9,43.7,30.07,North,0,6.9,6.9,43,0.00,CLR,FEW,0.00,WeatherDisplay:10.37,2013-05-14 18:12:00,
2013-05-14 11:17:00,66.6,43.4,30.06,West,270,2.7,2.7,43,0.00,CLR,FEW,0.00,WeatherDisplay:10.37,2013-05-14 18:17:00,
2013-05-14 11:22:00,66.4,43.8,30.06,West,270,0.0,0.0,44,0.00,CLR,FEW,0.00,WeatherDisplay:10.37,2013-05-14 18:22:00,
2013-05-14 11:27:00,66.0,42.9,30.06,ENE,68,3.5,3.5,43,0.00,CLR,FEW,0.00,WeatherDisplay:10.37,2013-05-14 18:27:00,
2013-05-14 11:32:00,65.8,43.9,30.05,NE,45,0.0,0.0,45,0.00,CLR,FEW,0.00,WeatherDisplay:10.37,2013-05-14 18:32:00,
2013-05-14 11:37:00,65.7,42.5,30.05,West,270,0.0,0.0,43,0.00,CLR,FEW,0.00,WeatherDisplay:10.37,2013-05-14 18:37:00,
2013-05-14 11:42:00,65.7,43.1,30.05,ESE,112,0.0,0.0,44,0.00,CLR,FEW,0.00,WeatherDisplay:10.37,2013-05-14 18:42:00,
2013-05-14 11:47:00,65.8,43.3,30.05,North,0,0.0,0.0,44,0.00,CLR,FEW,0.00,WeatherDisplay:10.37,2013-05-14 18:47:00,
2013-05-14 11:52:00,65.8,42.7,30.05,NE,45,0.0,0.4,43,0.00,CLR,FEW,0.00,WeatherDisplay:10.37,2013-05-14 18:52:00,
2013-05-14 11:57:00,65.5,40.5,30.05,ENE,68,3.5,3.5,40,0.00,CLR,FEW,0.00,WeatherDisplay:10.37,2013-05-14 18:57:00,
2013-05-14 12:02:00,65.5,43.0,30.05,West,270,0.0,0.0,44,0.00,CLR,FEW,0.00,WeatherDisplay:10.37,2013-05-14 19:02:00,
2013-05-14 12:07:00,66.0,42.9,30.04,NNW,338,0.0,0.0,43,0.00,CLR,FEW,0.00,WeatherDisplay:10.37,2013-05-14 19:07:00,
2013-05-14 12:12:00,66.0,42.9,30.04,West,270,0.0,0.0,43,0.00,CLR,FEW,0.00,WeatherDisplay:10.37,2013-05-14 19:12:00,
2013-05-14 12:17:00,66.0,42.9,30.04,West,270,0.0,0.0,43,0.00,CLR,FEW,0.00,WeatherDisplay:10.37,2013-05-14 19:17:00,
2013-05-14 12:22:00,66.6,43.4,30.03,NNE,22,0.0,0.0,43,0.00,CLR,FEW,0.00,WeatherDisplay:10.37,2013-05-14 19:22:00,
2013-05-14 12:27:00,66.7,42.3,30.03,ENE,68,0.0,0.0,41,0.00,CLR,FEW,0.00,WeatherDisplay:10.37,2013-05-14 19:27:00,
2013-05-14 12:32:00,66.9,43.7,30.03,WSW,248,5.8,5.8,43,0.00,CLR,FEW,0.00,WeatherDisplay:10.37,2013-05-14 19:32:00,
2013-05-14 12:37:00,67.1,43.8,30.02,SSW,202,4.6,4.6,43,0.00,CLR,FEW,0.00,WeatherDisplay:10.37,2013-05-14 19:37:00,
2013-05-14 12:42:00,67.3,44.0,30.02,NW,315,0.0,0.0,43,0.00,CLR,FEW,0.00,WeatherDisplay:10.37,2013-05-14 19:42:00,
2013-05-14 12:47:00,67.6,43.7,30.02,ESE,112,0.0,0.0,42,0.00,CLR,FEW,0.00,WeatherDisplay:10.37,2013-05-14 19:47:00,
2013-05-14 12:52:00,67.6,44.3,30.02,SSW,202,1.3,1.3,43,0.00,CLR,FEW,0.00,WeatherDisplay:10.37,2013-05-14 19:52:00,
2013-05-14 12:57:00,67.6,45.5,30.02,SSW,202,0.0,0.0,45,0.00,CLR,FEW,0.00,WeatherDisplay:10.37,2013-05-14 19:57:00,
2013-05-14 13:02:00,67.8,45.7,30.01,NE,45,0.0,0.0,45,0.00,CLR,FEW,0.00,WeatherDisplay:10.37,2013-05-14 20:02:00,
2013-05-14 13:07:00,67.6,43.1,30.02,North,0,0.0,0.0,41,0.00,CLR,FEW,0.00,WeatherDisplay:10.37,2013-05-14 20:07:00,
2013-05-14 13:12:00,67.6,43.7,30.02,SW,225,0.0,0.0,42,0.00,CLR,FEW,0.00,WeatherDisplay:10.37,2013-05-14 20:12:00,
2013-05-14 13:17:00,67.5,44.2,30.02,NW,315,0.0,0.9,43,0.00,CLR,FEW,0.00,WeatherDisplay:10.37,2013-05-14 20:17:00,
2013-05-14 13:22:00,67.8,44.5,30.01,WSW,248,6.9,6.9,43,0.00,CLR,FEW,0.00,WeatherDisplay:10.37,2013-05-14 20:22:00,
2013-05-14 13:27:00,68.2,44.8,30.00,SW,225,5.8,5.8,43,0.00,CLR,FEW,0.00,WeatherDisplay:10.37,2013-05-14 20:27:00,
2013-05-14 13:32:00,68.5,45.8,30.00,WSW,248,4.6,4.6,44,0.00,CLR,FEW,0.00,WeatherDisplay:10.37,2013-05-14 20:32:00,
2013-05-14 13:37:00,68.9,44.9,30.00,West,270,4.6,4.6,42,0.00,CLR,FEW,0.00,WeatherDisplay:10.37,2013-05-14 20:37:00,
2013-05-14 13:42:00,69.1,45.0,30.01,WNW,292,4.6,4.6,42,0.00,CLR,FEW,0.00,WeatherDisplay:10.37,2013-05-14 20:42:00,
2013-05-14 13:47:00,69.4,45.3,30.00,WNW,292,1.2,3.3,42,0.00,CLR,FEW,0.00,WeatherDisplay:10.37,2013-05-14 20:47:00,
2013-05-14 13:52:00,69.6,44.9,30.00,NW,315,2.3,2.3,41,0.00,CLR,FEW,0.00,WeatherDisplay:10.37,2013-05-14 20:52:00,
2013-05-14 13:57:00,69.6,44.9,30.00,SW,225,5.8,5.8,41,0.00,CLR,FEW,0.00,WeatherDisplay:10.37,2013-05-14 20:57:00,
2013-05-14 14:02:00,69.6,44.2,30.00,SSW,202,5.8,6.3,40,0.00,CLR,FEW,0.00,WeatherDisplay:10.37,2013-05-14 21:02:00,
2013-05-14 14:07:00,69.6,44.9,30.00,WNW,292,5.8,5.8,41,0.00,CLR,FEW,0.00,WeatherDisplay:10.37,2013-05-14 21:07:00,
2013-05-14 14:12:00,69.6,44.2,30.00,NNW,338,3.5,3.5,40,0.00,CLR,FEW,0.00,WeatherDisplay:10.37,2013-05-14 21:12:00,
2013-05-14 14:17:00,69.6,44.2,29.99,WNW,292,2.3,2.7,40,0.00,CLR,FEW,0.00,WeatherDisplay:10.37,2013-05-14 21:17:00,
2013-05-14 14:22:00,69.6,44.2,30.00,West,270,0.0,0.0,40,0.00,CLR,FEW,0.00,WeatherDisplay:10.37,2013-05-14 21:22:00,
2013-05-14 14:27:00,69.8,45.7,30.00,SSW,202,4.6,4.6,42,0.00,CLR,FEW,0.00,WeatherDisplay:10.37,2013-05-14 21:27:00,
2013-05-14 14:32:00,70.0,44.5,29.99,West,270,6.9,6.9,40,0.00,CLR,FEW,0.00,WeatherDisplay:10.37,2013-05-14 21:32:00,
2013-05-14 14:37:00,70.2,44.7,29.99,SW,225,6.9,6.9,40,0.00,CLR,FEW,0.00,WeatherDisplay:10.37,2013-05-14 21:37:00,
2013-05-14 14:42:00,70.3,45.5,29.99,NNW,338,6.9,6.9,41,0.00,CLR,FEW,0.00,WeatherDisplay:10.37,2013-05-14 21:42:00,
2013-05-14 14:47:00,70.5,44.4,29.99,NNE,22,0.0,0.0,39,0.00,CLR,FEW,0.00,WeatherDisplay:10.37,2013-05-14 21:47:00,
2013-05-14 14:52:00,70.5,43.0,29.98,West,270,5.8,5.8,37,0.00,CLR,FEW,0.00,WeatherDisplay:10.37,2013-05-14 21:52:00,
2013-05-14 14:57:00,70.5,44.4,29.98,West,270,0.0,0.0,39,0.00,CLR,FEW,0.00,WeatherDisplay:10.37,2013-05-14 21:57:00,
2013-05-14 15:02:00,70.5,45.0,29.98,NNW,338,0.0,0.0,40,0.00,CLR,FEW,0.00,WeatherDisplay:10.37,2013-05-14 22:02:00,
2013-05-14 15:07:00,71.2,45.0,29.98,West,270,0.0,0.0,39,0.00,CLR,FEW,0.00,WeatherDisplay:10.37,2013-05-14 22:07:00,
2013-05-14 15:12:00,71.2,45.0,29.98,West,270,0.0,0.3,39,0.00,CLR,FEW,0.00,WeatherDisplay:10.37,2013-05-14 22:12:00,
2013-05-14 15:17:00,71.4,45.2,29.97,WNW,292,0.0,2.6,39,0.00,CLR,FEW,0.00,WeatherDisplay:10.37,2013-05-14 22:17:00,
2013-05-14 15:22:00,71.4,45.2,29.97,West,270,8.1,8.1,39,0.00,CLR,FEW,0.00,WeatherDisplay:10.37,2013-05-14 22:22:00,
2013-05-14 15:27:00,71.4,45.2,29.97,SW,225,6.9,6.9,39,0.00,CLR,FEW,0.00,WeatherDisplay:10.37,2013-05-14 22:27:00,
2013-05-14 15:32:00,71.8,45.5,29.97,WNW,292,6.9,6.9,39,0.00,CLR,FEW,0.00,WeatherDisplay:10.37,2013-05-14 22:32:00,
2013-05-14 15:37:00,71.8,45.5,29.97,West,270,8.1,8.3,39,0.00,CLR,FEW,0.00,WeatherDisplay:10.37,2013-05-14 22:37:00,
2013-05-14 15:42:00,72.0,45.0,29.97,SW,225,5.8,5.8,38,0.00,CLR,FEW,0.00,WeatherDisplay:10.37,2013-05-14 22:42:00,
2013-05-14 15:47:00,72.0,45.0,29.97,West,270,4.6,4.9,38,0.00,CLR,FEW,0.00,WeatherDisplay:10.37,2013-05-14 22:47:00,
2013-05-14 15:52:00,72.0,45.0,29.97,WNW,292,6.9,6.9,38,0.00,CLR,FEW,0.00,WeatherDisplay:10.37,2013-05-14 22:52:00,
2013-05-14 15:57:00,71.8,45.5,29.97,West,270,5.8,5.8,39,0.00,CLR,FEW,0.00,WeatherDisplay:10.37,2013-05-14 22:57:00,
2013-05-14 16:02:00,71.8,44.8,29.97,SW,225,5.8,5.8,38,0.00,CLR,FEW,0.00,WeatherDisplay:10.37,2013-05-14 23:02:00,
2013-05-14 16:07:00,71.8,44.8,29.97,WSW,248,9.2,9.2,38,0.00,CLR,FEW,0.00,WeatherDisplay:10.37,2013-05-14 23:07:00,
2013-05-14 16:12:00,71.8,44.8,29.97,NW,315,3.5,4.0,38,0.00,CLR,FEW,0.00,WeatherDisplay:10.37,2013-05-14 23:12:00,
2013-05-14 16:17:00,71.8,44.8,29.97,West,270,0.0,0.0,38,0.00,CLR,FEW,0.00,WeatherDisplay:10.37,2013-05-14 23:17:00,
2013-05-14 16:22:00,71.8,44.8,29.97,WNW,292,9.2,9.2,38,0.00,CLR,FEW,0.00,WeatherDisplay:10.37,2013-05-14 23:22:00,
2013-05-14 16:27:00,72.0,45.0,29.97,WSW,248,6.9,6.9,38,0.00,CLR,FEW,0.00,WeatherDisplay:10.37,2013-05-14 23:27:00,
2013-05-14 16:32:00,72.0,45.0,29.97,NW,315,0.0,0.0,38,0.00,CLR,FEW,0.00,WeatherDisplay:10.37,2013-05-14 23:32:00,
2013-05-14 16:37:00,71.8,43.4,29.97,WSW,248,5.8,5.9,36,0.00,CLR,FEW,0.00,WeatherDisplay:10.37,2013-05-14 23:37:00,
2013-05-14 16:42:00,71.8,43.4,29.97,NW,315,6.9,6.9,36,0.00,CLR,FEW,0.00,WeatherDisplay:10.37,2013-05-14 23:42:00,
2013-05-14 16:47:00,71.4,43.1,29.97,NW,315,6.9,6.9,36,0.00,CLR,FEW,0.00,WeatherDisplay:10.37,2013-05-14 23:47:00,
2013-05-14 16:52:00,71.4,43.1,29.97,WNW,292,6.9,6.9,36,0.00,CLR,FEW,0.00,WeatherDisplay:10.37,2013-05-14 23:52:00,
2013-05-14 16:57:00,71.2,42.9,29.97,West,270,8.1,8.1,36,0.00,CLR,FEW,0.00,WeatherDisplay:10.37,2013-05-14 23:57:00,
2013-05-14 17:02:00,71.1,42.7,29.97,SW,225,6.9,7.2,36,0.00,CLR,FEW,0.00,WeatherDisplay:10.37,2013-05-15 00:02:00,
2013-05-14 17:07:00,70.9,42.6,29.97,West,270,4.6,5.1,36,0.00,CLR,FEW,0.00,WeatherDisplay:10.37,2013-05-15 00:07:00,
2013-05-14 17:12:00,70.9,42.6,29.97,WSW,248,10.4,10.4,36,0.00,CLR,FEW,0.00,WeatherDisplay:10.37,2013-05-15 00:12:00,
2013-05-14 17:17:00,70.9,42.6,29.97,West,270,3.5,3.5,36,0.00,CLR,FEW,0.00,WeatherDisplay:10.37,2013-05-15 00:17:00,
2013-05-14 17:22:00,71.1,42.7,29.97,WSW,248,4.6,4.6,36,0.00,CLR,FEW,0.00,WeatherDisplay:10.37,2013-05-15 00:22:00,
2013-05-14 17:27:00,71.2,43.6,29.96,West,270,4.6,4.9,37,0.00,CLR,FEW,0.00,WeatherDisplay:10.37,2013-05-15 00:27:00,
2013-05-14 17:32:00,71.4,43.1,29.96,West,270,2.7,0.0,36,0.00,CLR,FEW,0.00,WeatherDisplay:10.37,2013-05-15 00:32:00,
2013-05-14 17:37:00,71.4,43.1,29.96,WSW,248,0.0,0.0,36,0.00,CLR,FEW,0.00,WeatherDisplay:10.37,2013-05-15 00:37:00,
2013-05-14 17:42:00,71.4,43.1,29.97,SSW,202,6.9,6.9,36,0.00,CLR,FEW,0.00,WeatherDisplay:10.37,2013-05-15 00:42:00,
2013-05-14 17:47:00,71.2,42.9,29.96,SW,225,6.9,7.2,36,0.00,CLR,FEW,0.00,WeatherDisplay:10.37,2013-05-15 00:47:00,
2013-05-14 17:52:00,70.7,43.1,29.96,SW,225,5.4,5.4,37,0.00,CLR,FEW,0.00,WeatherDisplay:10.37,2013-05-15 00:52:00,
2013-05-14 17:57:00,70.7,42.4,29.96,SW,225,3.6,3.6,36,0.00,CLR,FEW,0.00,WeatherDisplay:10.37,2013-05-15 00:57:00,
2013-05-14 18:02:00,70.3,42.8,29.96,SW,225,8.1,8.1,37,0.00,CLR,FEW,0.00,WeatherDisplay:10.37,2013-05-15 01:02:00,
2013-05-14 18:07:00,70.0,42.5,29.96,SW,225,10.4,10.4,37,0.00,CLR,FEW,0.00,WeatherDisplay:10.37,2013-05-15 01:07:00,
2013-05-14 18:12:00,69.6,42.2,29.97,SW,225,6.9,6.9,37,0.00,CLR,FEW,0.00,WeatherDisplay:10.37,2013-05-15 01:12:00,
2013-05-14 18:18:00,69.4,42.0,29.96,SSW,202,6.9,6.9,37,0.00,CLR,FEW,0.00,WeatherDisplay:10.37,2013-05-15 01:18:00,
2013-05-14 18:23:00,69.3,41.9,29.96,WSW,248,6.9,0.0,37,0.00,CLR,FEW,0.00,WeatherDisplay:10.37,2013-05-15 01:23:00,
2013-05-14 18:28:00,68.9,42.2,29.97,WSW,248,0.0,0.0,38,0.00,CLR,FEW,0.00,WeatherDisplay:10.37,2013-05-15 01:28:00,
2013-05-14 18:33:00,68.7,41.4,29.97,SW,225,0.0,0.0,37,0.00,CLR,FEW,0.00,WeatherDisplay:10.37,2013-05-15 01:33:00,
2013-05-14 18:38:00,68.5,41.9,29.97,WSW,248,0.0,0.0,38,0.00,CLR,FEW,0.00,WeatherDisplay:10.37,2013-05-15 01:38:00,
2013-05-14 18:43:00,68.4,41.8,29.97,WSW,248,0.0,0.0,38,0.00,CLR,FEW,0.00,WeatherDisplay:10.37,2013-05-15 01:43:00,
2013-05-14 18:48:00,68.2,42.3,29.97,SW,225,4.6,4.9,39,0.00,CLR,FEW,0.00,WeatherDisplay:10.37,2013-05-15 01:48:00,
2013-05-14 18:53:00,67.8,41.9,29.97,SW,225,5.8,5.8,39,0.00,CLR,FEW,0.00,WeatherDisplay:10.37,2013-05-15 01:53:00,
2013-05-14 18:58:00,67.6,41.8,29.97,WSW,248,0.0,0.0,39,0.00,CLR,FEW,0.00,WeatherDisplay:10.37,2013-05-15 01:58:00,
2013-05-14 19:03:00,67.3,42.1,29.97,SSW,202,0.0,0.0,40,0.00,CLR,FEW,0.00,WeatherDisplay:10.37,2013-05-15 02:03:00,
2013-05-14 19:08:00,67.1,42.6,29.97,SSW,202,0.0,0.0,41,0.00,CLR,FEW,0.00,WeatherDisplay:10.37,2013-05-15 02:08:00,
2013-05-14 19:13:00,66.9,41.8,29.97,SSW,202,0.0,0.0,40,0.00,CLR,FEW,0.00,WeatherDisplay:10.37,2013-05-15 02:13:00,
2013-05-14 19:18:00,66.7,41.6,29.97,SSW,202,0.0,0.0,40,0.00,CLR,FEW,0.00,WeatherDisplay:10.37,2013-05-15 02:18:00,
2013-05-14 19:23:00,66.6,42.1,29.97,SSW,202,0.0,0.0,41,0.00,CLR,FEW,0.00,WeatherDisplay:10.37,2013-05-15 02:23:00,
2013-05-14 19:28:00,66.4,42.6,29.97,SSW,202,0.0,0.0,42,0.00,CLR,FEW,0.00,WeatherDisplay:10.37,2013-05-15 02:28:00,
2013-05-14 19:33:00,66.2,42.4,29.97,SSW,202,0.0,0.0,42,0.00,CLR,FEW,0.00,WeatherDisplay:10.37,2013-05-15 02:33:00,
2013-05-14 19:38:00,66.0,42.9,29.97,SSW,202,0.0,0.0,43,0.00,CLR,FEW,0.00,WeatherDisplay:10.37,2013-05-15 02:38:00,
2013-05-14 19:43:00,65.8,43.3,29.98,SSW,202,0.0,0.0,44,0.00,CLR,FEW,0.00,WeatherDisplay:10.37,2013-05-15 02:43:00,
2013-05-14 19:48:00,65.7,43.1,29.98,SW,225,0.0,0.0,44,0.00,CLR,FEW,0.00,WeatherDisplay:10.37,2013-05-15 02:48:00,
2013-05-14 19:53:00,65.5,43.6,29.98,SW,225,0.0,0.0,45,0.00,CLR,FEW,0.00,WeatherDisplay:10.37,2013-05-15 02:53:00,
2013-05-14 19:58:00,65.3,43.4,29.98,SW,225,0.0,0.0,45,0.00,CLR,FEW,0.00,WeatherDisplay:10.37,2013-05-15 02:58:00,
2013-05-14 20:03:00,64.9,43.1,29.98,SW,225,0.0,0.0,45,0.00,CLR,FEW,0.00,WeatherDisplay:10.37,2013-05-15 03:03:00,
2013-05-14 20:08:00,64.8,43.5,29.98,SW,225,0.0,0.0,46,0.00,CLR,FEW,0.00,WeatherDisplay:10.37,2013-05-15 03:08:00,
2013-05-14 20:13:00,64.2,44.1,29.98,SW,225,0.0,0.0,48,0.00,CLR,FEW,0.00,WeatherDisplay:10.37,2013-05-15 03:13:00,
2013-05-14 20:18:00,64.0,43.9,29.98,SW,225,0.0,0.0,48,0.00,CLR,FEW,0.00,WeatherDisplay:10.37,2013-05-15 03:18:00,
2013-05-14 20:23:00,63.7,44.2,29.98,SW,225,0.0,0.0,49,0.00,CLR,FEW,0.00,WeatherDisplay:10.37,2013-05-15 03:23:00,
2013-05-14 20:28:00,63.3,43.8,29.99,SW,225,0.0,0.0,49,0.00,CLR,FEW,0.00,WeatherDisplay:10.37,2013-05-15 03:28:00,
2013-05-14 20:33:00,63.0,43.5,29.99,SW,225,0.0,0.0,49,0.00,CLR,FEW,0.00,WeatherDisplay:10.37,2013-05-15 03:33:00,
2013-05-14 20:38:00,62.6,43.7,29.99,SW,225,0.0,0.0,50,0.00,CLR,FEW,0.00,WeatherDisplay:10.37,2013-05-15 03:38:00,
2013-05-14 20:43:00,62.1,43.2,29.99,SW,225,0.0,0.0,50,0.00,CLR,FEW,0.00,WeatherDisplay:10.37,2013-05-15 03:43:00,
2013-05-14 20:48:00,61.7,42.9,29.99,SW,225,0.0,0.0,50,0.00,CLR,FEW,0.00,WeatherDisplay:10.37,2013-05-15 03:48:00,
2013-05-14 20:53:00,61.3,43.0,30.00,SW,225,0.0,0.0,51,0.00,CLR,FEW,0.00,WeatherDisplay:10.37,2013-05-15 03:53:00,
2013-05-14 20:58:00,61.0,42.7,30.00,SW,225,0.0,0.0,51,0.00,CLR,FEW,0.00,WeatherDisplay:10.37,2013-05-15 03:58:00,
2013-05-14 21:01:00,60.6,42.9,30.00,SW,225,0.0,0.0,52,0.00,CLR,FEW,0.00,WeatherDisplay:10.37,2013-05-15 04:01:00,
2013-05-14 21:02:00,60.6,42.9,30.00,SW,225,0.0,0.0,52,0.00,CLR,FEW,0.00,WeatherDisplay:10.37,2013-05-15 04:02:00,
2013-05-14 21:03:00,60.4,43.2,30.00,SW,225,0.0,0.0,53,0.00,CLR,FEW,0.00,WeatherDisplay:10.37,2013-05-15 04:03:00,
2013-05-14 21:06:00,60.4,43.2,30.00,SW,225,0.0,0.0,53,0.00,CLR,FEW,0.00,WeatherDisplay:10.37,2013-05-15 04:06:00,
2013-05-14 21:11:00,59.9,42.7,30.00,SW,225,0.0,0.0,53,0.00,CLR,FEW,0.00,WeatherDisplay:10.37,2013-05-15 04:11:00,
2013-05-14 21:16:00,59.4,42.7,30.00,SW,225,0.0,0.0,54,0.00,CLR,FEW,0.00,WeatherDisplay:10.37,2013-05-15 04:16:00,
2013-05-14 21:21:00,59.2,43.0,30.01,SW,225,0.0,0.0,55,0.00,CLR,FEW,0.00,WeatherDisplay:10.37,2013-05-15 04:21:00,
2013-05-14 21:26:00,58.8,42.7,30.01,SW,225,0.0,0.0,55,0.00,CLR,FEW,0.00,WeatherDisplay:10.37,2013-05-15 04:26:00,
2013-05-14 21:31:00,58.6,43.0,30.01,SW,225,0.0,0.0,56,0.00,CLR,FEW,0.00,WeatherDisplay:10.37,2013-05-15 04:31:00,
2013-05-14 21:36:00,58.3,42.6,30.01,SW,225,0.0,0.0,56,0.00,CLR,FEW,0.00,WeatherDisplay:10.37,2013-05-15 04:36:00,
2013-05-14 21:41:00,57.9,42.3,30.01,SSW,202,0.0,0.0,56,0.00,CLR,FEW,0.00,WeatherDisplay:10.37,2013-05-15 04:41:00,
2013-05-14 21:46:00,57.4,42.7,30.01,SSW,202,0.0,0.0,58,0.00,CLR,FEW,0.00,WeatherDisplay:10.37,2013-05-15 04:46:00,
2013-05-14 21:51:00,57.0,42.4,30.02,SSW,202,0.0,0.0,58,0.00,CLR,FEW,0.00,WeatherDisplay:10.37,2013-05-15 04:51:00,
2013-05-14 21:56:00,56.5,42.3,30.01,SSW,202,0.0,0.0,59,0.00,CLR,FEW,0.00,WeatherDisplay:10.37,2013-05-15 04:56:00,
2013-05-14 22:01:00,56.3,42.6,30.02,SSW,202,0.0,0.0,60,0.00,CLR,FEW,0.00,WeatherDisplay:10.37,2013-05-15 05:01:00,
2013-05-14 22:06:00,55.9,42.7,30.02,SSW,202,0.0,0.0,61,0.00,CLR,FEW,0.00,WeatherDisplay:10.37,2013-05-15 05:06:00,
2013-05-14 22:11:00,55.6,42.3,30.02,SSW,202,0.0,0.0,61,0.00,CLR,FEW,0.00,WeatherDisplay:10.37,2013-05-15 05:11:00,
2013-05-14 22:16:00,55.2,42.0,30.02,SSW,202,0.0,0.0,61,0.00,CLR,FEW,0.00,WeatherDisplay:10.37,2013-05-15 05:16:00,
2013-05-14 22:21:00,55.0,42.3,30.02,SSW,202,0.0,0.0,62,0.00,CLR,FEW,0.00,WeatherDisplay:10.37,2013-05-15 05:21:00,
2013-05-14 22:26:00,54.7,42.3,30.02,SSW,202,0.0,0.0,63,0.00,CLR,FEW,0.00,WeatherDisplay:10.37,2013-05-15 05:26:00,
2013-05-14 22:31:00,54.3,41.6,30.02,SW,225,0.0,0.0,62,0.00,CLR,FEW,0.00,WeatherDisplay:10.37,2013-05-15 05:31:00,
2013-05-14 22:36:00,54.3,42.0,30.03,SW,225,0.0,0.0,63,0.00,CLR,FEW,0.00,WeatherDisplay:10.37,2013-05-15 05:36:00,
2013-05-14 22:41:00,54.1,42.2,30.03,SW,225,0.0,0.0,64,0.00,CLR,FEW,0.00,WeatherDisplay:10.37,2013-05-15 05:41:00,
2013-05-14 22:46:00,53.8,41.9,30.03,SW,225,0.0,0.0,64,0.00,CLR,FEW,0.00,WeatherDisplay:10.37,2013-05-15 05:46:00,
2013-05-14 22:51:00,53.8,42.3,30.03,SW,225,0.0,0.0,65,0.00,CLR,FEW,0.00,WeatherDisplay:10.37,2013-05-15 05:51:00,
2013-05-14 22:56:00,53.2,41.8,30.03,SW,225,0.0,0.0,65,0.00,CLR,FEW,0.00,WeatherDisplay:10.37,2013-05-15 05:56:00,
2013-05-14 23:01:00,53.2,41.8,30.03,SW,225,0.0,0.0,65,0.00,CLR,FEW,0.00,WeatherDisplay:10.37,2013-05-15 06:01:00,
2013-05-14 23:07:00,52.9,41.8,30.04,SW,225,0.0,0.0,66,0.00,CLR,FEW,0.00,WeatherDisplay:10.37,2013-05-15 06:07:00,
2013-05-14 23:12:00,52.7,41.7,30.04,SW,225,0.0,0.0,66,0.00,CLR,FEW,0.00,WeatherDisplay:10.37,2013-05-15 06:12:00,
2013-05-14 23:17:00,52.5,41.9,30.04,SW,225,0.0,0.0,67,0.00,CLR,FEW,0.00,WeatherDisplay:10.37,2013-05-15 06:17:00,
2013-05-14 23:22:00,52.3,41.7,30.04,SW,225,0.0,0.0,67,0.00,CLR,FEW,0.00,WeatherDisplay:10.37,2013-05-15 06:22:00,
2013-05-14 23:27:00,52.0,41.4,30.04,SW,225,0.0,0.0,67,0.00,CLR,FEW,0.00,WeatherDisplay:10.37,2013-05-15 06:27:00,
2013-05-14 23:32:00,51.8,41.6,30.04,SW,225,0.0,0.0,68,0.00,CLR,FEW,0.00,WeatherDisplay:10.37,2013-05-15 06:32:00,
2013-05-14 23:37:00,51.6,41.4,30.04,SW,225,0.0,0.0,68,0.00,CLR,FEW,0.00,WeatherDisplay:10.37,2013-05-15 06:37:00,
2013-05-14 23:42:00,51.4,41.2,30.03,SW,225,0.0,0.0,68,0.00,CLR,FEW,0.00,WeatherDisplay:10.37,2013-05-15 06:42:00,
2013-05-14 23:47:00,51.1,41.3,30.04,SW,225,0.0,0.0,69,0.00,CLR,FEW,0.00,WeatherDisplay:10.37,2013-05-15 06:47:00,
2013-05-14 23:52:00,51.1,41.3,30.03,SW,225,0.0,0.0,69,0.00,CLR,FEW,0.00,WeatherDisplay:10.37,2013-05-15 06:52:00,
2013-05-14 23:57:00,50.7,40.9,30.04,SW,225,0.0,0.0,69,0.00,CLR,FEW,0.00,WeatherDisplay:10.37,2013-05-15 06:57:00,